Regional Weather Roundup
Issued by NWS Jackson, KY

Home | Current Version | Previous Version | Text Only | Print | Product List | Glossary Off
Versions: 1 2 3 4 5 6 7 8 9 10 11 12 13 14 15 16 17 18 19 20 21 22 23 24 25 26 27 28 29 30 31 32 33 34 35 36 37 38 39 40 41 42 43 44 45 46 47 48 49 50

000
ASUS43 KJKL 280611
RWRJKL

EAST KENTUCKY HOURLY WEATHER ROUNDUP
NATIONAL WEATHER SERVICE JACKSON KY
200 AM EDT MON JUL 28 2014

NOTE: "FAIR" INDICATES FEW OR NO CLOUDS BELOW 12,000 FEET WITH
NO SIGNIFICANT WEATHER AND/OR OBSTRUCTIONS TO VISIBILITY.

* THESE REPORTS ARE NOT UNDER NWS QUALITY CONTROL AND MAY NOT
  REPORT WEATHER SUCH AS PRECIPITATION AND FOG.

KYZ079-080-083-085-087-088-110-112-115-119-120-280700
...EASTERN KENTUCKY...

CITY           SKY/WX    TMP DP  RH WIND       PRES   REMARKS
JACKSON        FOG       67  65  93 CALM      29.88S VSB 1/2
6HR MIN TEMP:  67; 6HR MAX TEMP:  73; 6HR PCP:  0.63;

LONDON         PTCLDY    72  67  84 CALM      29.91R
6HR MIN TEMP:  72; 6HR MAX TEMP:  76; 6HR PCP:  0.01;

SOMERSET*      PTCLDY    72  63  73 N8        29.90S
MONTICELLO*    CLEAR     70  67  90 CALM      29.92R
6HR MIN TEMP:  69; 6HR MAX TEMP:  79; 6HR PCP:  0.06;

WILLIAMSBURG*    N/A     68  68 100 CALM      29.91
MIDDLESBORO*   CLOUDY    68  68 100 CALM      29.92R
6HR MIN TEMP:  68; 6HR MAX TEMP:  72; 6HR PCP:  1.08;

HARLAN APT*    CLOUDY    68  68 100 MISG      29.93R
BLACK MTN*       N/A     59  59 100 NW1         N/A
PIKEVILLE APT* CLOUDY    66  66 100 CALM      29.87R
MOREHEAD APT*  CLOUDY    70  64  83 W6G14     29.86R
$$

KYZ035-036-041-042-044-050-067-078-099-280700
...CENTRAL KENTUCKY...

CITY           SKY/WX    TMP DP  RH WIND       PRES   REMARKS
MT STERLING*   CLEAR     68  63  83 NW6       29.87S
FLEMING/MASON* CLEAR     66  63  88 W9G16     29.83S
DANVILLE*      CLEAR     70  61  73 NW6       29.90S
RICHMOND*      CLEAR     70  61  73 W8        29.88S
LEXINGTON      CLEAR     70  63  78 NW6       29.87S
6HR MIN TEMP:  68; 6HR MAX TEMP:  85; 6HR PCP:  0.04;

FRANKFORT      CLEAR     69  60  73 W5        29.86R
6HR MIN TEMP:  69; 6HR MAX TEMP:  84; 6HR PCP:  0.04;

$$

KYZ091>093-OHZ055-061-077-WVZ005-015-034-035-042-280700
...SOUTHERN OHIO/WEST VIRGINIA...

CITY           SKY/WX    TMP DP  RH WIND       PRES   REMARKS
COVINGTON      PTCLDY    66  59  78 W9        29.83R
COLUMBUS       PTCLDY    66  63  88 W6        29.73R
DAYTON         PTCLDY    66  57  72 W12       29.79S
WILMINGTON     MOCLDY    67  57  70 W8        29.79R
HUNTINGTON     CLEAR     68  65  90 SW7       29.79R
CHARLESTON     PTCLDY    68  67  96 SW10      29.77S
PINEVILLE*     LGT RAIN  70  70 100 MISG      29.90R
BECKLEY        CLOUDY    66  63  90 SW7       29.86S
BLUEFIELD      RAIN      68  64  87 W10       29.91R FOG
$$

VAZ002-007-008-TNZ017-027-036-066-071-280700
...SOUTHWEST VIRGINIA/EAST TENNESSEE...

CITY           SKY/WX    TMP DP  RH WIND       PRES   REMARKS
WISE*          CLOUDY    66  64  94 NW8G21    29.96R
JONESVILLE*      N/A     66  66 100 CALM      29.94R
ABINGDON*      CLOUDY    66  65  97 W8        29.93R
BRISTOL        CLOUDY    66  64  93 SW5       29.91F
KNOXVILLE      CLOUDY    71  70  96 S5        29.91S
OAK RIDGE      CLOUDY    72  70  93 CALM      29.91F
CROSSVILLE     LGT RAIN  70  67  90 W7        29.97S
NASHVILLE      PTCLDY    76  72  87 NW6       29.93R
$$

...KEY TO REMARKS...
VSB - VISIBILITY IN MILES
WCI - WIND CHILL INDEX
HX  - HEAT INDEX

$$


USA.gov is the U.S. government's official web portal to all federal, state and local government web resources and services.